Погода в Рогачеве

Россия / Архангельская область     71°36′43″N   52°27′18″E
темп.,
°C
ветер,
м/с
пор.,
м/с
влажн.,
%
обл.,
%
осадки,
мм/ч
давл.,
гПа
погр.,
м
24 октября, вс
вс2400:00−5св35824 0.0 997150
03:00−5св348220 0.0 999127
06:00−5св347982 0.0 1000160
09:00−5всв347834 0.0 1001155
12:00−5св237442 0.0 1003147
15:00−6ссв227531 0.0 100488
18:00−7с227635 0.0 100587
21:00−6сз477852 0.0 1005322
25 октября, пн
пн2500:00−6с59715 0.0 1005254
03:00−5ссз597875 0.0 1005319
06:00−5ссз597899 0.0 1005390
09:00−4ссз5978100 0.0 1005457
12:00−4ссз597677 0.0 1005501
15:00−4ссз47787 0.0 1005396
18:00−5с587755 0.0 1006377
21:00−5ссв347191 0.0 1006141
26 октября, вт
вт2600:00−5с456798 0.0 1007155
03:00−5с5870100 0.0 1008297
06:00−5ссв5972100 0.0 1009345
09:00−5ссв6107188 0.0 1010370
12:00−5ссв697088 0.0 1011393
15:00−6ссв576957 0.0 1012275
18:00−6св237087 0.0 1013132
21:00−6ссз117564 0.0 1013150
27 октября, ср
ср2700:00−7всв347754 0.1 1013219
03:00−8св347037 0.1 1013182
06:00−8ссв336413 0.0 1013133
09:00−8с34655 0.0 1013137
12:00−7с46685 0.0 1013158
15:00−7с46775 0.0 1012163
18:00−7ссз45785 0.0 1011143
21:00−5сз467795 0.0 1010227
28 октября, чт
чт2800:00−5ссз5878100 0.0 1009305
03:00−5ссз588634 0.0 1008344
06:00−5с697550 0.0 1008412
09:00−7с610655 0.0 1009303
12:00−7с585719 0.0 1011228
15:00−8ссв46592 0.0 1012215
18:00−7ссв3454100 0.0 1013166
21:00−9св34620 0.0 1014172